| time (UTC) | temp F | wind direction | speed MPH | gust MPH | rain 1hr in | rain 24hr in | rain mn in | humidity % | barometer mb |
| 20260831191838 | 93 | 357 | 1.0 | 2.0 | 0.00 | 0.00 | 0.00 | 65 | 991.8 |
| 20260831191225 | 91 | 183 | 0.0 | 1.0 | 0.00 | 0.00 | 0.00 | 67 | 992.2 |
| 20260831190635 | 90 | 183 | 1.0 | 1.0 | 0.00 | 0.00 | 0.00 | 73 | 992.2 |
| 20260831190045 | 89 | 183 | 0.0 | 0.0 | 0.00 | 0.00 | 0.00 | 72 | 992.2 |
| 20260831185437 | 88 | 184 | 1.0 | 1.0 | 0.00 | 0.00 | 0.00 | 76 | 992.2 |
| 20260831184251 | 90 | 186 | 0.0 | 0.0 | 0.00 | 0.00 | 0.00 | 76 | 992.2 |
| 20260831183631 | 90 | 185 | 0.0 | 1.0 | 0.00 | 0.00 | 0.00 | 75 | 992.2 |
| 20260831183051 | 88 | 186 | 0.0 | 0.0 | 0.00 | 0.00 | 0.00 | 78 | 992.5 |
| 20260831182410 | 87 | 186 | 0.0 | 0.0 | 0.00 | 0.00 | 0.00 | 79 | 992.5 |
| 20260831181832 | 87 | 187 | 0.0 | 0.0 | 0.00 | 0.00 | 0.00 | 80 | 992.8 |
| 20260831180635 | 87 | 348 | 0.0 | 0.0 | 0.00 | 0.00 | 0.00 | 77 | 992.5 |
| 20260831180034 | 86 | 348 | 0.0 | 1.0 | 0.00 | 0.00 | 0.00 | 81 | 992.5 |
| 20260831175420 | 84 | 189 | 1.0 | 3.0 | 0.00 | 0.00 | 0.00 | 84 | 992.5 |
| 20260831174808 | 85 | 175 | 1.0 | 2.0 | 0.00 | 0.00 | 0.00 | 83 | 992.8 |
| 20260831174228 | 84 | 184 | 1.0 | 2.0 | 0.00 | 0.00 | 0.00 | 84 | 992.8 |
| 20260831173651 | 83 | 241 | 0.0 | 1.0 | 0.00 | 0.00 | 0.00 | 85 | 992.8 |
| 20260831172427 | 83 | 65 | 0.0 | 0.0 | 0.00 | 0.00 | 0.00 | 86 | 992.8 |
| 20260831171229 | 83 | 170 | 1.0 | 1.0 | 0.00 | 0.00 | 0.00 | 84 | 992.8 |
| 20260831170623 | 84 | 177 | 0.0 | 2.0 | 0.00 | 0.00 | 0.00 | 84 | 992.8 |
| 20260831165439 | 86 | 78 | 1.0 | 1.0 | 0.00 | 0.00 | 0.00 | 81 | 992.8 |
| 20260831164824 | 87 | 72 | 1.0 | 1.0 | 0.00 | 0.00 | 0.00 | 79 | 992.8 |
| 20260831164248 | 88 | 110 | 1.0 | 2.0 | 0.00 | 0.00 | 0.00 | 77 | 992.8 |
| 20260831163634 | 89 | 357 | 0.0 | 1.0 | 0.00 | 0.00 | 0.00 | 76 | 992.8 |
| 20260831163030 | 89 | 357 | 0.0 | 1.0 | 0.00 | 0.00 | 0.00 | 74 | 992.8 |
| 20260831162440 | 89 | 237 | 1.0 | 2.0 | 0.00 | 0.00 | 0.00 | 65 | 992.8 |
| 20260831161808 | 90 | 112 | 0.0 | 1.0 | 0.00 | 0.00 | 0.00 | 69 | 992.8 |
| 20260831161228 | 90 | 222 | 0.0 | 2.0 | 0.00 | 0.00 | 0.00 | 65 | 992.8 |
| 20260831160646 | 89 | 227 | 0.0 | 2.0 | 0.00 | 0.00 | 0.00 | 67 | 992.8 |
| 20260831160050 | 88 | 315 | 1.0 | 3.0 | 0.00 | 0.00 | 0.00 | 69 | 992.8 |
| 20260831155441 | 89 | 273 | 0.0 | 2.0 | 0.00 | 0.00 | 0.00 | 66 | 993.2 |
| 20260831154218 | 89 | 69 | 0.0 | 1.0 | 0.00 | 0.00 | 0.00 | 72 | 993.2 |
| 20260831153648 | 88 | 69 | 0.0 | 1.0 | 0.00 | 0.00 | 0.00 | 76 | 993.2 |
| 20260831153042 | 87 | 64 | 1.0 | 1.0 | 0.00 | 0.00 | 0.00 | 79 | 993.5 |
| 20260831152407 | 87 | 42 | 0.0 | 1.0 | 0.00 | 0.00 | 0.00 | 74 | 993.2 |
| 20260831151247 | 87 | 93 | 0.0 | 1.0 | 0.00 | 0.00 | 0.00 | 76 | 993.5 |
| 20260831150632 | 84 | 52 | 0.0 | 1.0 | 0.00 | 0.00 | 0.00 | 80 | 993.2 |
| 20260831150014 | 84 | 34 | 0.0 | 1.0 | 0.00 | 0.00 | 0.00 | 80 | 993.2 |
| 20260831145441 | 84 | 100 | 2.0 | 3.0 | 0.00 | 0.00 | 0.00 | 82 | 993.2 |
| 20260831144823 | 83 | 79 | 1.0 | 1.0 | 0.00 | 0.00 | 0.00 | 81 | 993.5 |
| 20260831144217 | 81 | 25 | 1.0 | 2.0 | 0.00 | 0.00 | 0.00 | 84 | 993.2 |
| 20260831143032 | 79 | 24 | 0.0 | 1.0 | 0.00 | 0.00 | 0.00 | 87 | 993.2 |
| 20260831142410 | 78 | 38 | 1.0 | 2.0 | 0.00 | 0.00 | 0.00 | 89 | 993.5 |
| 20260831141247 | 76 | 22 | 0.0 | 3.0 | 0.00 | 0.00 | 0.00 | 91 | 993.2 |
| 20260831140651 | 76 | 32 | 2.0 | 2.0 | 0.00 | 0.00 | 0.00 | 91 | 993.2 |
| 20260831135433 | 75 | 77 | 1.0 | 2.0 | 0.00 | 0.00 | 0.00 | 93 | 993.2 |
| 20260831134848 | 75 | 66 | 1.0 | 2.0 | 0.00 | 0.00 | 0.00 | 93 | 993.5 |
| 20260831134212 | 75 | 359 | 1.0 | 3.0 | 0.00 | 0.00 | 0.00 | 93 | 993.2 |
| 20260831133646 | 74 | 88 | 1.0 | 1.0 | 0.00 | 0.00 | 0.00 | 95 | 993.5 |
| 20260831133036 | 73 | 52 | 1.0 | 2.0 | 0.00 | 0.00 | 0.00 | 95 | 993.5 |
| 20260831132448 | 73 | 85 | 2.0 | 3.0 | 0.00 | 0.00 | 0.00 | 96 | 993.5 |
| 20260831131848 | 73 | 94 | 0.0 | 2.0 | 0.00 | 0.00 | 0.00 | 97 | 993.5 |
| 20260831131239 | 72 | 40 | 2.0 | 3.0 | 0.00 | 0.00 | 0.00 | 97 | 993.9 |
| 20260831130638 | 72 | 81 | 2.0 | 3.0 | 0.00 | 0.00 | 0.00 | 97 | 993.5 |
| 20260831130043 | 72 | 23 | 0.0 | 1.0 | 0.00 | 0.00 | 0.00 | 98 | 993.5 |
| 20260831125406 | 71 | 42 | 1.0 | 2.0 | 0.00 | 0.00 | 0.00 | 99 | 993.5 |
| 20260831124810 | 71 | 67 | 1.0 | 3.0 | 0.00 | 0.00 | 0.00 | 99 | 993.5 |
| 20260831124230 | 71 | 35 | 2.0 | 3.0 | 0.00 | 0.00 | 0.00 | 99 | 993.2 |
| 20260831123035 | 70 | 50 | 0.0 | 1.0 | 0.00 | 0.00 | 0.00 | 99 | 993.5 |
| 20260831122413 | 70 | 56 | 2.0 | 2.0 | 0.00 | 0.00 | 0.00 | 99 | 993.2 |
| 20260831121833 | 70 | 93 | 1.0 | 1.0 | 0.00 | 0.00 | 0.00 | 99 | 993.5 |
| 20260831121237 | 70 | 87 | 1.0 | 2.0 | 0.00 | 0.00 | 0.00 | 99 | 993.5 |
| 20260831120649 | 70 | 182 | 1.0 | 3.0 | 0.00 | 0.00 | 0.00 | 99 | 993.5 |
| 20260831120024 | 70 | 322 | 0.0 | 0.0 | 0.00 | 0.00 | 0.00 | 99 | 993.2 |
| 20260831115442 | 69 | 103 | 1.0 | 1.0 | 0.00 | 0.00 | 0.00 | 99 | 993.2 |
| 20260831114222 | 68 | 77 | 0.0 | 1.0 | 0.00 | 0.00 | 0.00 | 99 | 993.2 |
| 20260831113636 | 68 | 200 | 1.0 | 2.0 | 0.00 | 0.00 | 0.00 | 99 | 993.2 |
| 20260831113049 | 68 | 179 | 2.0 | 2.0 | 0.00 | 0.00 | 0.00 | 99 | 993.2 |
| 20260831112411 | 68 | 161 | 1.0 | 2.0 | 0.00 | 0.00 | 0.00 | 99 | 993.2 |
| 20260831111221 | 68 | 212 | 1.0 | 2.0 | 0.00 | 0.00 | 0.00 | 99 | 993.2 |
| 20260831110608 | 68 | 183 | 2.0 | 2.0 | 0.00 | 0.00 | 0.00 | 99 | 993.2 |
| 20260831110042 | 68 | 229 | 2.0 | 2.0 | 0.00 | 0.00 | 0.00 | 99 | 992.8 |
| 20260831104852 | 68 | 215 | 1.0 | 2.0 | 0.00 | 0.00 | 0.00 | 99 | 992.8 |
| 20260831104229 | 68 | 179 | 0.0 | 2.0 | 0.00 | 0.00 | 0.00 | 99 | 992.8 |
| 20260831103641 | 68 | 107 | 1.0 | 2.0 | 0.00 | 0.00 | 0.00 | 99 | 992.8 |
| 20260831103026 | 68 | 223 | 1.0 | 3.0 | 0.00 | 0.00 | 0.00 | 99 | 992.8 |
| 20260831102417 | 68 | 230 | 2.0 | 2.0 | 0.00 | 0.00 | 0.00 | 99 | 992.8 |
| 20260831101839 | 68 | 152 | 1.0 | 3.0 | 0.00 | 0.00 | 0.00 | 99 | 992.8 |
| 20260831101226 | 68 | 190 | 2.0 | 2.0 | 0.00 | 0.00 | 0.00 | 99 | 992.8 |
| 20260831100629 | 68 | 143 | 2.0 | 2.0 | 0.00 | 0.00 | 0.00 | 99 | 992.8 |
| 20260831100049 | 68 | 172 | 1.0 | 3.0 | 0.00 | 0.00 | 0.00 | 99 | 992.5 |
| 20260831094241 | 68 | 262 | 0.0 | 1.0 | 0.00 | 0.00 | 0.00 | 99 | 992.5 |
| 20260831093645 | 68 | 210 | 1.0 | 2.0 | 0.00 | 0.00 | 0.00 | 99 | 992.5 |
| 20260831093047 | 68 | 204 | 1.0 | 3.0 | 0.00 | 0.00 | 0.00 | 99 | 992.8 |
| 20260831092425 | 68 | 168 | 1.0 | 2.0 | 0.00 | 0.00 | 0.00 | 99 | 992.5 |
| 20260831091841 | 69 | 247 | 0.0 | 1.0 | 0.00 | 0.00 | 0.00 | 99 | 992.2 |
| 20260831090014 | 68 | 181 | 1.0 | 2.0 | 0.00 | 0.00 | 0.00 | 99 | 992.5 |
| 20260831085446 | 69 | 198 | 1.0 | 2.0 | 0.00 | 0.00 | 0.00 | 99 | 992.2 |
| 20260831084813 | 69 | 202 | 0.0 | 2.0 | 0.00 | 0.00 | 0.00 | 99 | 992.2 |
| 20260831083627 | 69 | 191 | 2.0 | 2.0 | 0.00 | 0.00 | 0.00 | 99 | 992.5 |
| 20260831083041 | 69 | 180 | 2.0 | 2.0 | 0.00 | 0.00 | 0.00 | 99 | 992.2 |
| 20260831082423 | 69 | 184 | 2.0 | 2.0 | 0.00 | 0.00 | 0.00 | 99 | 992.2 |
| 20260831081818 | 69 | 190 | 1.0 | 2.0 | 0.00 | 0.00 | 0.00 | 99 | 992.2 |
| 20260831081213 | 69 | 146 | 1.0 | 2.0 | 0.00 | 0.00 | 0.00 | 99 | 992.2 |
| 20260831080627 | 69 | 198 | 2.0 | 2.0 | 0.00 | 0.00 | 0.00 | 99 | 992.2 |
| 20260831075429 | 69 | 187 | 1.0 | 2.0 | 0.00 | 0.00 | 0.00 | 99 | 992.2 |
| 20260831074806 | 69 | 189 | 1.0 | 2.0 | 0.00 | 0.00 | 0.00 | 99 | 992.2 |
| 20260831074237 | 69 | 178 | 1.0 | 2.0 | 0.00 | 0.00 | 0.00 | 99 | 992.2 |
| 20260831073615 | 69 | 182 | 0.0 | 1.0 | 0.00 | 0.00 | 0.00 | 99 | 992.2 |
| 20260831073040 | 69 | 242 | 0.0 | 1.0 | 0.00 | 0.00 | 0.00 | 99 | 992.2 |
| 20260831071845 | 69 | 221 | 1.0 | 1.0 | 0.00 | 0.00 | 0.00 | 99 | 992.2 |
| 20260831070648 | 70 | 120 | 2.0 | 6.0 | 0.00 | 0.00 | 0.00 | 99 | 992.2 |
| 20260831070008 | 70 | 102 | 0.0 | 1.0 | 0.00 | 0.00 | 0.00 | 99 | 992.2 |
| 20260831065444 | 70 | 127 | 1.0 | 1.0 | 0.00 | 0.00 | 0.00 | 99 | 992.2 |
| 20260831064821 | 70 | 174 | 1.0 | 2.0 | 0.00 | 0.00 | 0.00 | 99 | 992.2 |
| 20260831064208 | 70 | 191 | 1.0 | 1.0 | 0.00 | 0.00 | 0.00 | 99 | 992.2 |
| 20260831063033 | 70 | 156 | 0.0 | 2.0 | 0.00 | 0.00 | 0.00 | 99 | 992.5 |
| 20260831062429 | 70 | 180 | 1.0 | 1.0 | 0.00 | 0.00 | 0.00 | 99 | 992.2 |
| 20260831061817 | 70 | 86 | 0.0 | 0.0 | 0.00 | 0.00 | 0.00 | 99 | 992.5 |
| 20260831061236 | 70 | 158 | 1.0 | 1.0 | 0.00 | 0.00 | 0.00 | 99 | 992.5 |
| 20260831060636 | 70 | 156 | 1.0 | 1.0 | 0.00 | 0.00 | 0.00 | 99 | 992.5 |
| 20260831060024 | 70 | 103 | 0.0 | 1.0 | 0.00 | 0.00 | 0.00 | 99 | 992.5 |
| 20260831055425 | 70 | 104 | 0.0 | 1.0 | 0.00 | 0.00 | 0.00 | 99 | 992.2 |
| 20260831054840 | 71 | 104 | 0.0 | 1.0 | 0.00 | 0.00 | 0.00 | 99 | 992.2 |
| 20260831054217 | 71 | 99 | 0.0 | 1.0 | 0.00 | 0.00 | 0.00 | 99 | 992.2 |
| 20260831053621 | 71 | 121 | 0.0 | 1.0 | 0.00 | 0.00 | 0.00 | 99 | 992.5 |
| 20260831053031 | 71 | 91 | 0.0 | 1.0 | 0.00 | 0.00 | 0.00 | 99 | 992.2 |
| 20260831051825 | 71 | 105 | 0.0 | 1.0 | 0.00 | 0.00 | 0.00 | 99 | 992.2 |
| 20260831050642 | 71 | 94 | 0.0 | 1.0 | 0.00 | 0.00 | 0.00 | 99 | 992.5 |
| 20260831045438 | 71 | 91 | 0.0 | 1.0 | 0.00 | 0.00 | 0.00 | 99 | 992.5 |
| 20260831044213 | 71 | 109 | 0.0 | 1.0 | 0.00 | 0.00 | 0.00 | 99 | 992.2 |
| 20260831043638 | 71 | 109 | 1.0 | 1.0 | 0.00 | 0.00 | 0.00 | 99 | 992.2 |
| 20260831043049 | 72 | 99 | 0.0 | 1.0 | 0.00 | 0.00 | 0.00 | 99 | 992.2 |
| 20260831042416 | 72 | 118 | 0.0 | 0.0 | 0.00 | 0.00 | 0.00 | 99 | 992.5 |
| 20260831041832 | 72 | 106 | 0.0 | 1.0 | 0.00 | 0.00 | 0.00 | 99 | 992.5 |
| 20260831040635 | 72 | 99 | 0.0 | 1.0 | 0.00 | 0.00 | 0.00 | 99 | 992.5 |
| 20260831040028 | 72 | 173 | 1.0 | 1.0 | 0.00 | 0.00 | 0.00 | 99 | 992.5 |
| 20260831034829 | 72 | 172 | 1.0 | 1.0 | 0.00 | 0.00 | 0.00 | 99 | 992.5 |
| 20260831034219 | 72 | 109 | 0.0 | 1.0 | 0.00 | 0.00 | 0.00 | 99 | 992.5 |
| 20260831033644 | 72 | 110 | 0.0 | 1.0 | 0.00 | 0.00 | 0.00 | 99 | 992.5 |
| 20260831033012 | 72 | 181 | 0.0 | 1.0 | 0.00 | 0.00 | 0.00 | 99 | 992.5 |
| 20260831032451 | 72 | 137 | 0.0 | 1.0 | 0.00 | 0.00 | 0.00 | 99 | 992.8 |
| 20260831031813 | 72 | 85 | 0.0 | 0.0 | 0.00 | 0.00 | 0.00 | 99 | 992.8 |
| 20260831031234 | 72 | 100 | 0.0 | 1.0 | 0.00 | 0.00 | 0.00 | 99 | 992.5 |
| 20260831030621 | 72 | 96 | 1.0 | 1.0 | 0.00 | 0.00 | 0.00 | 99 | 992.5 |
| 20260831025424 | 72 | 158 | 0.0 | 1.0 | 0.00 | 0.00 | 0.00 | 99 | 992.5 |
| 20260831024226 | 72 | 189 | 0.0 | 0.0 | 0.00 | 0.00 | 0.00 | 99 | 992.5 |
| 20260831023629 | 72 | 194 | 0.0 | 0.0 | 0.00 | 0.00 | 0.00 | 99 | 992.5 |
| 20260831023010 | 72 | 54 | 0.0 | 0.0 | 0.00 | 0.00 | 0.00 | 99 | 992.5 |
| 20260831022426 | 72 | 54 | 0.0 | 0.0 | 0.00 | 0.00 | 0.00 | 99 | 992.5 |
| 20260831021811 | 72 | 52 | 0.0 | 0.0 | 0.00 | 0.00 | 0.00 | 99 | 992.5 |
| 20260831021246 | 72 | 52 | 0.0 | 0.0 | 0.00 | 0.00 | 0.00 | 99 | 992.2 |
| 20260831020640 | 72 | 18 | 0.0 | 0.0 | 0.00 | 0.00 | 0.00 | 99 | 992.5 |
| 20260831015435 | 73 | 18 | 0.0 | 0.0 | 0.00 | 0.00 | 0.00 | 99 | 992.2 |
| 20260831014807 | 73 | 22 | 0.0 | 0.0 | 0.00 | 0.00 | 0.00 | 99 | 992.5 |
| 20260831014231 | 73 | 14 | 0.0 | 0.0 | 0.00 | 0.00 | 0.00 | 99 | 992.5 |
| 20260831013622 | 73 | 14 | 0.0 | 0.0 | 0.00 | 0.00 | 0.00 | 99 | 992.2 |
| 20260831013049 | 73 | 14 | 0.0 | 0.0 | 0.00 | 0.00 | 0.00 | 99 | 992.2 |
| 20260831012433 | 73 | 16 | 0.0 | 1.0 | 0.00 | 0.00 | 0.00 | 99 | 992.2 |
| 20260831011251 | 73 | 355 | 0.0 | 0.0 | 0.00 | 0.00 | 0.00 | 99 | 992.2 |
| 20260831010633 | 73 | 355 | 0.0 | 1.0 | 0.00 | 0.00 | 0.00 | 99 | 992.2 |
| 20260831010048 | 74 | 354 | 0.0 | 0.0 | 0.00 | 0.00 | 0.00 | 99 | 992.2 |
| 20260831005445 | 74 | 354 | 0.0 | 0.0 | 0.00 | 0.00 | 0.00 | 99 | 991.8 |
| 20260831004839 | 74 | 354 | 0.0 | 0.0 | 0.00 | 0.00 | 0.00 | 99 | 992.2 |
| 20260831004244 | 74 | 353 | 0.0 | 0.0 | 0.00 | 0.00 | 0.00 | 99 | 991.8 |
| 20260831003639 | 74 | 354 | 0.0 | 0.0 | 0.00 | 0.00 | 0.00 | 99 | 991.5 |
| 20260831003016 | 75 | 354 | 0.0 | 0.0 | 0.00 | 0.00 | 0.00 | 99 | 991.5 |
| 20260831001838 | 75 | 353 | 0.0 | 0.0 | 0.00 | 0.00 | 0.00 | 98 | 991.5 |
| 20260831001209 | 75 | 353 | 0.0 | 0.0 | 0.00 | 0.00 | 0.00 | 98 | 991.5 |
| 20260831000649 | 76 | 353 | 0.0 | 0.0 | 0.00 | 0.00 | 0.00 | 97 | 991.5 |
| 20260831000024 | 76 | 356 | 0.0 | 0.0 | 0.00 | 0.00 | 0.00 | 97 | 991.1 |
| 20260830234847 | 76 | 124 | 0.0 | 0.0 | 0.00 | 0.00 | 0.00 | 97 | 991.1 |
| 20260830234227 | 77 | 334 | 0.0 | 0.0 | 0.00 | 0.00 | 0.00 | 96 | 991.1 |
| 20260830233608 | 77 | 308 | 0.0 | 0.0 | 0.00 | 0.00 | 0.00 | 95 | 991.1 |
| 20260830232412 | 78 | 358 | 0.0 | 0.0 | 0.00 | 0.00 | 0.00 | 94 | 990.8 |
| 20260830231227 | 79 | 251 | 1.0 | 1.0 | 0.00 | 0.00 | 0.00 | 92 | 990.8 |
| 20260830230609 | 79 | 233 | 0.0 | 0.0 | 0.00 | 0.00 | 0.00 | 91 | 990.8 |
| 20260830230024 | 80 | 243 | 0.0 | 1.0 | 0.00 | 0.00 | 0.00 | 90 | 991.1 |
| 20260830224842 | 81 | 130 | 0.0 | 1.0 | 0.00 | 0.00 | 0.00 | 89 | 991.1 |
| 20260830224245 | 81 | 242 | 0.0 | 0.0 | 0.00 | 0.00 | 0.00 | 88 | 991.1 |
| 20260830223615 | 82 | 240 | 0.0 | 1.0 | 0.00 | 0.00 | 0.00 | 87 | 991.1 |
| 20260830222427 | 83 | 228 | 0.0 | 1.0 | 0.00 | 0.00 | 0.00 | 85 | 990.8 |
| 20260830221823 | 84 | 224 | 0.0 | 2.0 | 0.00 | 0.00 | 0.00 | 83 | 990.8 |
| 20260830215444 | 85 | 256 | 0.0 | 1.0 | 0.00 | 0.00 | 0.00 | 81 | 991.1 |
| 20260830214824 | 84 | 255 | 1.0 | 2.0 | 0.00 | 0.00 | 0.00 | 82 | 990.8 |
| 20260830214234 | 83 | 214 | 1.0 | 2.0 | 0.00 | 0.00 | 0.00 | 83 | 991.1 |
| 20260830213610 | 83 | 248 | 1.0 | 1.0 | 0.00 | 0.00 | 0.00 | 85 | 990.8 |
| 20260830212447 | 83 | 229 | 0.0 | 1.0 | 0.00 | 0.00 | 0.00 | 81 | 990.8 |
| 20260830211844 | 84 | 233 | 1.0 | 2.0 | 0.00 | 0.00 | 0.00 | 78 | 990.8 |
| 20260830211221 | 85 | 245 | 0.0 | 1.0 | 0.00 | 0.00 | 0.00 | 76 | 991.1 |
| 20260830210613 | 86 | 246 | 0.0 | 1.0 | 0.00 | 0.00 | 0.00 | 74 | 990.8 |
| 20260830210045 | 89 | 245 | 2.0 | 2.0 | 0.00 | 0.00 | 0.00 | 70 | 991.1 |
| 20260830205430 | 90 | 243 | 2.0 | 2.0 | 0.00 | 0.00 | 0.00 | 69 | 990.8 |
| 20260830204832 | 89 | 238 | 1.0 | 2.0 | 0.00 | 0.00 | 0.00 | 68 | 990.8 |
| 20260830204247 | 90 | 257 | 2.0 | 3.0 | 0.00 | 0.00 | 0.00 | 69 | 991.1 |
| 20260830203641 | 91 | 220 | 1.0 | 2.0 | 0.00 | 0.00 | 0.00 | 63 | 991.1 |
| 20260830203047 | 89 | 221 | 1.0 | 2.0 | 0.00 | 0.00 | 0.00 | 67 | 991.1 |
| 20260830202427 | 88 | 211 | 1.0 | 3.0 | 0.00 | 0.00 | 0.00 | 68 | 991.1 |
| 20260830201822 | 90 | 211 | 3.0 | 3.0 | 0.00 | 0.00 | 0.00 | 67 | 991.1 |
| 20260830201226 | 90 | 218 | 1.0 | 2.0 | 0.00 | 0.00 | 0.00 | 65 | 991.1 |
| 20260830200650 | 90 | 244 | 2.0 | 2.0 | 0.00 | 0.00 | 0.00 | 65 | 991.1 |
| 20260830200025 | 89 | 202 | 1.0 | 2.0 | 0.00 | 0.00 | 0.00 | 64 | 991.1 |
| 20260830195416 | 88 | 287 | 1.0 | 4.0 | 0.00 | 0.00 | 0.00 | 67 | 991.5 |
| 20260830194833 | 88 | 237 | 2.0 | 4.0 | 0.00 | 0.00 | 0.00 | 67 | 991.5 |
| 20260830194212 | 88 | 136 | 3.0 | 6.0 | 0.00 | 0.00 | 0.00 | 68 | 991.5 |
| 20260830193608 | 88 | 253 | 2.0 | 4.0 | 0.00 | 0.00 | 0.00 | 67 | 991.8 |
| 20260830193024 | 88 | 306 | 3.0 | 11.0 | 0.00 | 0.00 | 0.00 | 67 | 991.8 |
| 20260830192415 | 90 | 335 | 4.0 | 7.0 | 0.00 | 0.00 | 0.00 | 60 | 991.8 |